User: anonymous   Login
Location: Beutels
(47.8767°N, 9.8584°E)
Time: 23:29:32
(UTC+00:00)
Language:

NOSS 2-1 (C) - Orbit

View from above orbital plane
View from above orbital plane
View from above satellite
View from above satellite

Ground track
Ground track

The orbit data is extracted from the following two-line orbital elements,

1 20691U 90050C   25188.06454532  .00006953  00000-0  52028-3 0  9998
2 20691  63.2973  60.5900 0889981  78.5568 291.3963 13.59423662 59325
Epoch (UTC): 07 July 2025 01:32:56
Eccentricity: 0.0889981
inclination: 63.2973°
perigee height: 378 km
apogee height: 1698 km
right ascension of ascending node: 60.5900°
argument of perigee: 78.5568°
revolutions per day: 13.59423662
mean anomaly at epoch: 291.3963°
orbit number at epoch: 5932

The dashed part of the orbit path shows where the satellite is in the earth's shadow,  

DLR